Date String (YYYY-MM-DD hh:mm:ss) UTC,Instrument flags,absolute air pressure of the measurement (hPa),sample flow rate (lpm),inlet stack bypass flow (lpm),air temperature of the measurement (°C),ambient temperature measured by the external sensor (°C),aerosol sample conditioner tube jacket temperature (°C),OPC LED temperature (°C),internal box temperature (°C),relative humidity of the measurement (%),span deviation,mass concentration of particles derived from Lorenz-Mie calculation of OPC scattering (μg/m³),mass concentration of particles derived from Lorenz-Mie calculation of OPC scattering (μg/m³),mass concentration of particles derived from Lorenz-Mie calculation of OPC scattering (μg/m³)
DateTimeUTC,F1_M11,P_M11,Q1_M11,Q2_M11,T1_M11,T2_M11,T3_M11,T4_M11,T5_M11,U1_M11,ZSPAN_M11,X0_M11,X2_M11,X1_M11
2023-09-27 08:00:00,SystemResetWarning,0833.3,5.01,000.00,028.8,024.6,000.0,037.2,030.2,14.4,0002.6,0018.20,0006.09,0004.73
2023-09-27 08:01:00,SystemResetWarning,0833.3,4.99,000.00,028.7,024.8,000.0,037.2,030.0,14.6,0002.4,0016.97,0006.09,0004.73
2023-09-27 08:02:00,SystemResetWarning,0833.4,5.00,000.00,028.6,025.2,000.0,037.2,030.0,14.7,0001.9,0016.77,0006.07,0004.74
2023-09-27 08:03:00,SystemResetWarning,0833.2,5.01,000.00,028.6,025.5,000.0,037.2,030.0,14.8,0001.5,0016.82,0006.08,0004.75
2023-09-27 08:04:00,SystemResetWarning,0832.9,5.00,000.00,028.5,025.9,000.0,037.2,030.1,14.9,0001.4,0017.00,0006.13,0004.78
2023-09-27 08:05:00,SystemResetWarning,0833.4,5.00,000.00,028.5,026.2,000.0,037.2,030.1,15.0,0002.6,0017.67,0006.16,0004.79
2023-09-27 08:06:00,SystemResetWarning,0833.2,5.00,000.00,028.5,026.4,000.0,037.1,030.1,15.2,0003.6,0017.08,0006.15,0004.80
2023-09-27 08:07:00,SystemResetWarning,0833.1,4.99,000.00,028.5,026.6,000.0,037.1,030.2,15.3,0003.7,0017.95,0006.16,0004.82
2023-09-27 08:08:00,SystemResetWarning,0833.3,5.00,000.00,028.5,026.8,000.0,037.1,030.2,15.3,0003.5,0017.19,0006.11,0004.83
2023-09-27 08:09:00,SystemResetWarning,0833.4,4.99,000.00,028.6,027.0,000.0,037.1,030.2,15.3,0002.9,0017.26,0006.06,0004.83
2023-09-27 08:10:00,SystemResetWarning,0833.4,5.00,000.00,028.6,027.1,000.0,037.1,030.3,15.3,0003.0,0017.98,0006.07,0004.85
2023-09-27 08:11:00,SystemResetWarning,0833.2,5.00,000.00,028.6,027.2,000.0,037.1,030.3,15.3,0002.2,0018.59,0006.10,0004.87
2023-09-27 08:12:00,SystemResetWarning,0833.0,5.01,000.00,028.6,027.3,000.0,037.1,030.3,15.3,0001.2,0019.07,0006.13,0004.89
2023-09-27 08:13:00,SystemResetWarning,0833.0,5.00,000.00,028.6,027.3,000.0,037.1,030.4,15.3,0001.8,0019.30,0006.18,0004.90
2023-09-27 08:14:00,SystemResetWarning,0832.8,5.00,000.00,028.7,027.4,000.0,037.1,030.4,15.3,0002.2,0019.72,0006.20,0004.91
2023-09-27 08:15:00,SystemResetWarning,0832.8,5.00,000.00,028.7,027.5,000.0,037.1,030.4,15.3,0002.4,0019.58,0006.16,0004.92
2023-09-27 08:16:00,SystemResetWarning,0832.8,5.00,000.00,028.7,027.5,000.0,037.1,030.5,15.3,0002.0,0019.52,0006.16,0004.91
2023-09-27 08:17:00,SystemResetWarning,0832.8,5.00,000.00,028.7,027.6,000.0,037.1,030.5,15.3,0000.8,0019.68,0006.18,0004.91
2023-09-27 08:18:00,SystemResetWarning,0832.8,4.99,000.00,028.8,027.6,000.0,037.2,030.5,15.4,0000.2,0018.89,0006.16,0004.91
2023-09-27 08:19:00,SystemResetWarning,0832.9,5.01,000.00,028.8,027.6,000.0,037.2,030.5,15.4,0000.7,0018.84,0006.17,0004.89
2023-09-27 08:20:00,SystemResetWarning,0833.1,5.01,000.00,028.8,027.6,000.0,037.2,030.6,15.4,0001.1,0019.44,0006.24,0004.90
2023-09-27 08:21:00,SystemResetWarning,0833.4,5.00,000.00,028.8,027.7,000.0,037.2,030.6,15.4,0001.1,0017.64,0006.25,0004.91
2023-09-27 08:22:00,SystemResetWarning,0833.4,5.01,000.00,028.8,027.7,000.0,037.2,030.6,15.4,0001.4,0017.39,0006.26,0004.92
2023-09-27 08:23:00,SystemResetWarning,0833.4,5.00,000.00,028.9,027.7,000.0,037.2,030.6,15.3,0002.3,0016.22,0006.26,0004.93
2023-09-27 08:24:00,SystemResetWarning,0833.3,5.00,000.00,028.9,027.7,000.0,037.2,030.6,15.3,0002.6,0015.87,0006.22,0004.93
2023-09-27 08:25:00,SystemResetWarning,0833.3,5.00,000.00,028.9,027.8,000.0,037.3,030.7,15.3,0002.1,0016.84,0006.22,0004.94
2023-09-27 08:26:00,SystemResetWarning,0833.3,5.00,000.00,028.9,027.8,000.0,037.3,030.7,15.6,0001.5,0017.73,0006.18,0004.94
2023-09-27 08:27:00,SystemResetWarning,0833.4,5.00,000.00,029.0,027.8,000.0,037.3,030.7,15.9,0001.5,0017.69,0006.16,0004.95
2023-09-27 08:28:00,SystemResetWarning,0833.2,5.00,000.00,029.0,027.8,000.0,037.3,030.7,15.9,0001.8,0017.16,0006.18,0004.97
2023-09-27 08:29:00,SystemResetWarning,0833.3,5.00,000.00,029.0,027.9,000.0,037.3,030.7,15.8,0002.0,0016.67,0006.23,0004.99
2023-09-27 08:30:00,SystemResetWarning,0833.3,5.00,000.00,029.0,027.9,000.0,037.4,030.8,15.8,0002.4,0017.00,0006.21,0005.01
2023-09-27 08:31:00,SystemResetWarning,0833.1,4.99,000.00,029.0,027.6,000.0,037.4,030.8,15.8,0003.0,0016.24,0006.19,0005.01
2023-09-27 08:32:00,SystemResetWarning,0832.8,4.99,000.00,029.0,025.8,000.0,037.3,030.6,15.8,0003.0,0016.19,0006.20,0005.01
2023-09-27 08:33:00,SystemResetWarning,0832.7,5.00,000.00,028.9,024.7,000.0,037.3,030.4,15.9,0003.2,0015.80,0006.19,0005.00
2023-09-27 08:34:00,SystemResetWarning,0832.7,5.01,000.00,028.8,024.7,000.0,037.2,030.1,16.2,0003.1,0016.46,0006.21,0005.00
2023-09-27 08:35:00,SystemResetWarning,0832.7,5.01,000.00,028.7,025.0,000.0,037.2,030.1,16.0,0002.9,0016.76,0006.24,0005.00
2023-09-27 08:36:00,SystemResetWarning,0832.7,4.99,000.00,028.6,025.3,000.0,037.2,030.1,15.9,0003.0,0016.46,0006.28,0005.02
2023-09-27 08:37:00,SystemResetWarning,0832.7,5.01,000.00,028.6,025.7,000.0,037.2,030.1,15.8,0003.3,0016.12,0006.35,0005.02
2023-09-27 08:38:00,SystemResetWarning,0832.9,5.00,000.00,028.6,026.0,000.0,037.2,030.1,16.0,0003.3,0015.51,0006.37,0005.03
2023-09-27 08:39:00,SystemResetWarning,0832.8,5.00,000.00,028.5,026.3,000.0,037.2,030.2,15.9,0003.3,0016.14,0006.38,0005.03
2023-09-27 08:40:00,SystemResetWarning,0832.8,5.00,000.00,028.5,026.5,000.0,037.2,030.2,15.5,0003.5,0017.27,0006.35,0005.03
2023-09-27 08:41:00,SystemResetWarning,0832.8,5.00,000.00,028.6,026.7,000.0,037.1,030.2,15.3,0003.4,0017.64,0006.40,0005.03
2023-09-27 08:42:00,SystemResetWarning,0832.8,5.00,000.00,028.6,026.9,000.0,037.1,030.2,15.6,0003.1,0017.85,0006.44,0005.04
2023-09-27 08:43:00,SystemResetWarning,0832.8,4.99,000.00,028.6,027.0,000.0,037.1,030.3,15.7,0003.3,0018.41,0006.47,0005.06
2023-09-27 08:44:00,SystemResetWarning,0832.7,5.00,000.00,028.6,027.1,000.0,037.1,030.3,15.6,0003.0,0018.78,0006.48,0005.07
2023-09-27 08:45:00,SystemResetWarning,0832.8,5.00,000.00,028.6,027.2,000.0,037.1,030.3,15.7,0003.0,0018.07,0006.52,0005.08
2023-09-27 08:46:00,SystemResetWarning,0832.8,5.00,000.00,028.6,027.3,000.0,037.1,030.4,15.7,0001.6,0018.01,0006.53,0005.08
2023-09-27 08:47:00,SystemResetWarning,0832.7,5.00,000.00,028.7,027.3,000.0,037.1,030.4,15.8,0000.0,0019.64,0006.54,0005.08
2023-09-27 08:48:00,SystemResetWarning,0832.9,5.01,000.00,028.7,027.4,000.0,037.1,030.4,15.7,0000.0,0020.21,0006.59,0005.08
2023-09-27 08:49:00,SystemResetWarning,0832.7,5.00,000.00,028.7,027.4,000.0,037.1,030.4,15.6,0000.0,0020.31,0006.62,0005.08
2023-09-27 08:50:00,SystemResetWarning,0832.7,5.00,000.00,028.7,027.4,000.0,037.1,030.4,15.6,0000.0,0020.57,0006.68,0005.08
2023-09-27 08:51:00,SystemResetWarning,0832.7,5.00,000.00,028.7,027.4,000.0,037.1,030.4,15.7,0000.0,0019.99,0006.76,0005.08
2023-09-27 08:52:00,SystemResetWarning,0832.7,5.00,000.00,028.7,027.5,000.0,037.1,030.5,15.6,0000.0,0020.12,0006.74,0005.08
2023-09-27 08:53:00,SystemResetWarning,0832.8,4.99,000.00,028.8,027.5,000.0,037.2,030.5,15.6,0000.0,0021.07,0006.78,0005.08
2023-09-27 08:54:00,SystemResetWarning,0832.7,4.99,000.00,028.8,027.5,000.0,037.2,030.5,15.5,0000.0,0021.61,0006.76,0005.06
2023-09-27 08:55:00,SystemResetWarning,0832.7,5.00,000.00,028.8,027.5,000.0,037.2,030.5,15.5,0000.0,0021.02,0006.73,0005.04
2023-09-27 08:56:00,SystemResetWarning,0832.7,5.00,000.00,028.8,027.5,000.0,037.2,030.5,15.4,0000.0,0021.05,0006.66,0005.03
2023-09-27 08:57:00,SystemResetWarning,0832.7,5.00,000.00,028.8,027.6,000.0,037.2,030.5,15.4,0000.0,0021.63,0006.65,0005.03
2023-09-27 08:58:00,SystemResetWarning,0832.7,5.01,000.00,028.8,027.6,000.0,037.2,030.6,15.3,0000.0,0021.43,0006.65,0005.02
2023-09-27 08:59:00,SystemResetWarning,0832.7,5.01,000.00,028.9,027.6,000.0,037.3,030.6,15.3,0000.0,0020.24,0006.56,0005.00
